[[{"header":{"parameterUnit":"m.s-1","parameterCategory":1,"la1":30.2991,"la2":30.254,"lo1":-89.0895,"lo2":-89.0444,"dy":0.0017,"dx":0.0017,"nx":28,"ny":28,"refTime":"2024-08-21T21:00:00:Z","depth":0,"parameterNumber":2,"parameterNumberName":"U-component_of_WINDS"},"data":[0,0,0,0,0,0,0,0,0,0,0,0,0,0,0,0,0,0,0,0,0,0,0,0,0,0,0,0,0,0,0,0,0,0,0,0,0,0,0,0,0,0,0,0,0,0,0,0,0,0,0,0,0,0,0,0,0,0,-2.198,-2.1981,0,-2.2046,-2.2047,-2.2048,-2.1997,-2.1995,-2.1993,-2.1991,-2.2066,-2.207,-2.2074,0,0,0,0,0,0,0,0,0,0,0,0,0,-2.182,-2.1823,-2.198,-2.1981,-2.1982,-2.2046,-2.2047,-2.2048,-2.1998,-2.1995,-2.1992,-2.199,-2.2065,-2.2069,-2.2074,0,0,0,0,0,0,0,0,0,0,0,0,0,-2.1888,-2.1824,-2.198,-2.1964,-2.1964,-2.2046,-2.2047,-2.2048,-2.1998,-2.1995,-2.1992,-2.1989,-2.2063,-2.2069,-2.2075,-2.2178,0,0,-2.2093,-2.2096,0,0,0,0,0,0,0,0,-2.1885,-2.1894,-2.1966,-2.1966,-2.1965,-2.201,-2.2018,-2.2092,-2.1999,-2.1985,-2.1991,-2.1987,-2.205,-2.2057,-2.2077,-2.2182,-2.2185,-2.2094,-2.2098,-2.21,-2.2102,0,0,0,0,0,0,0,-2.188,-2.1891,-2.2006,-2.1967,-2.1967,-2.1957,-2.1963,-2.2032,-2.2036,-2.1986,-2.1983,-2.1991,-2.205,-2.2071,-2.2079,-2.2186,-2.2094,-2.2099,-2.2103,-2.2105,-2.2383,-2.2387,0,0,0,0,0,0,-2.1876,-2.1888,-2.2004,-2.2008,-2.1916,-2.1963,-2.1969,-2.1999,-2.2035,-2.2037,-2.1994,-2.1988,-2.2063,-2.2072,-2.2081,-2.2207,-2.21,-2.2106,-2.2109,-2.2379,-2.2384,-2.2388,0,0,0,0,0,0,-2.1872,-2.1886,-2.2002,-2.1947,-2.1961,-2.1969,-2.2003,-2.2002,-2.2024,-2.204,-2.2042,-2.2015,-2.206,-2.2072,-2.2155,-2.2209,-2.2109,-2.2114,-2.2375,-2.2381,-2.2386,-2.2458,0,0,0,0,0,0,-2.1868,-2.1885,-2.1922,-2.1948,-2.1964,-2.2072,-2.2006,-2.2006,-2.2033,-2.2027,-2.206,-2.2063,-2.2059,-2.2146,-2.2161,-2.2215,-2.2119,-2.237,-2.2377,-2.2384,-2.2451,-2.2465,-2.2478,0,0,0,0,0,-2.1862,-2.1941,-2.1925,-2.1939,-2.201,-2.2075,-2.2084,-2.2076,-2.2038,-2.2077,-2.2088,-2.2062,-2.22,-2.2155,-2.2171,-2.2228,-2.2367,-2.2375,-2.2384,-2.2445,-2.2462,-2.2477,0,0,0,0,0,0,-2.1923,-2.1944,-2.1926,-2.2015,-2.2043,-2.2066,-2.2115,-2.2094,-2.2136,-2.2129,-2.2119,-2.2127,-2.2214,-2.2229,-2.2178,-2.2332,-2.2278,-2.229,-2.2319,-2.2336,-2.2349,-2.2344,-2.2124,0,0,0,0,0,-2.1947,-2.1995,-2.2011,-2.2088,-2.2103,-2.2107,-2.2135,-2.2126,-2.2156,-2.2168,-2.2185,-2.2218,-2.2269,-2.2303,-2.2351,-2.2453,-2.2461,-2.25,-2.2514,-2.2525,-2.2536,-2.2594,-2.2613,-2.2416,-2.2415,-2.2415,0,0,-2.1996,-2.2013,-2.2045,-2.2101,-2.2122,-2.2175,-2.2117,-2.2175,-2.2216,-2.2178,-2.2256,-2.2271,-2.2307,-2.24,-2.2442,-2.2416,-2.2592,-2.2535,-2.2544,-2.2549,-2.2605,-2.2624,-2.264,-2.2421,-2.242,-2.2419,0,0,-2.2114,-2.213,-2.2197,-2.222,-2.2252,-2.2254,-2.227,-2.2297,-2.2304,-2.2383,-2.2356,-2.2406,-2.2493,-2.2521,-2.2546,-2.2678,-2.2657,-2.2694,-2.2765,-2.2822,-2.2838,-2.2851,-2.2901,-2.2919,-2.2705,-2.2705,-2.2705,0,-2.2172,-2.2248,-2.2235,-2.2296,-2.2323,-2.2289,-2.236,-2.2383,-2.243,-2.2451,-2.242,-2.2531,-2.2553,-2.2653,-2.2686,-2.2707,-2.2728,-2.269,-2.2836,-2.285,-2.2862,-2.291,-2.2928,-2.2709,-2.2709,-2.2708,-2.2708,0,-2.2319,-2.2373,-2.2424,-2.2469,-2.2502,-2.2567,-2.2567,-2.2603,-2.2592,-2.2599,-2.2681,-2.2706,-2.276,-2.2783,-2.2773,-2.2884,-2.2867,-2.2836,-2.2782,-2.2886,-2.293,-2.2948,-2.2716,-2.2714,-2.2713,-2.2712,0,0,-2.2476,-2.2514,-2.2533,-2.2554,-2.2588,-2.2631,-2.2697,-2.2747,-2.278,-2.2814,-2.2871,-2.2947,-2.292,-2.2949,-2.2942,-2.2992,-2.3099,-2.2956,-2.2957,-2.2984,-2.3227,-2.3251,-2.3272,-2.3085,-2.3088,-2.3091,-2.3224,0,-2.2597,-2.2707,-2.2699,-2.2805,-2.2857,-2.2828,-2.2885,-2.2915,-2.2924,-2.2972,-2.2982,-2.3037,-2.2995,-2.3013,-2.3061,-2.3076,-2.3148,-2.3066,-2.3141,-2.3144,-2.3134,-2.3294,-2.3319,-2.3444,-2.3241,-2.3244,-2.3246,0,-2.2751,-2.279,-2.2901,-2.293,-2.2952,-2.3003,-2.3051,-2.3095,-2.313,-2.3133,-2.3167,-2.3153,-2.3224,-2.3167,-2.3266,-2.321,-2.3241,-2.3254,-2.3258,-2.3266,-2.3202,-2.3309,-2.3483,-2.3503,-2.3273,-2.3271,-2.3269,0,-2.2858,-2.2938,-2.3015,-2.3034,-2.3069,-2.3107,-2.3124,-2.3154,-2.3187,-2.3229,-2.3251,-2.3302,-2.3331,-2.3372,-2.3374,-2.3332,-2.3476,-2.3418,-2.3484,-2.3484,-2.3516,-2.3514,-2.37,-2.3533,-2.3533,-2.3532,-2.3532,0,-2.2994,-2.3064,-2.3063,-2.3111,-2.319,-2.3181,-2.3261,-2.3274,-2.3303,-2.3355,-2.3334,-2.3385,-2.3383,-2.3436,-2.3439,-2.3522,-2.3535,-2.3542,-2.3543,-2.3545,-2.3545,-2.3566,-2.3559,-2.3537,-2.3536,-2.3535,-2.3534,0,-2.3125,-2.3127,-2.321,-2.3237,-2.3246,-2.3303,-2.3328,-2.3375,-2.3383,-2.345,-2.3466,-2.3479,-2.354,-2.3546,-2.3618,-2.362,-2.3722,-2.3712,-2.371,-2.3709,-2.3775,-2.3769,-2.3982,-2.4011,-2.3823,-2.3825,-2.3827,0,-2.3213,-2.3266,-2.3298,-2.3331,-2.335,-2.3403,-2.3436,-2.3431,-2.3466,-2.3511,-2.3555,-2.3613,-2.366,-2.3761,-2.3779,-2.3835,-2.3827,-2.3898,-2.3836,-2.3838,-2.3832,-2.3829,-2.3836,-2.3911,-2.3913,-2.3914,-2.3916,0,-2.3369,-2.3368,-2.3414,-2.3462,-2.3501,-2.3539,-2.3575,-2.3604,-2.3604,-2.3646,-2.3707,-2.3744,-2.3817,-2.3877,-2.3933,-2.3954,-2.3937,-2.3935,-2.3954,-2.3958,-2.3955,-2.396,-2.3745,-2.3931,-2.3929,-2.3928,-2.3927,-2.3927,-2.3482,-2.3529,-2.356,-2.3614,-2.364,-2.3674,-2.3721,-2.3734,-2.3785,-2.3842,-2.3838,-2.3907,-2.3944,-2.4016,-2.4042,-2.4099,-2.4076,-2.4102,-2.4109,-2.4116,-2.4124,-2.3945,-2.4109,-2.4109,-2.4108,-2.4108,-2.4108,0,-2.3639,-2.3658,-2.3707,-2.3757,-2.3801,-2.3778,-2.3817,-2.3856,-2.3916,-2.3951,-2.3998,-2.4071,-2.413,-2.4153,-2.4212,-2.4254,-2.4248,-2.427,-2.4267,-2.4274,-2.414,-2.4119,-2.4274,-2.4274,-2.4274,-2.4274,-2.4274,-2.4273,-2.3726,-2.3804,-2.3808,-2.3901,-2.392,-2.3986,-2.4011,-2.4045,-2.4072,-2.4154,-2.4202,-2.4216,-2.4249,-2.431,-2.4365,-2.4371,-2.4395,-2.4421,-2.4424,-2.4299,-2.4282,-2.4266,-2.4247,-2.4426,-2.4426,-2.4553,-2.4554,-2.4555]},{"header":{"parameterUnit":"m.s-1","parameterCategory":1,"la1":30.2991,"la2":30.254,"lo1":-89.0895,"lo2":-89.0444,"dy":0.0017,"dx":0.0017,"nx":28,"ny":28,"refTime":"2024-08-21T21:00:00:Z","depth":0,"parameterNumber":3,"parameterNumberName":"V-component_of_WINDS"},"data":[0,0,0,0,0,0,0,0,0,0,0,0,0,0,0,0,0,0,0,0,0,0,0,0,0,0,0,0,0,0,0,0,0,0,0,0,0,0,0,0,0,0,0,0,0,0,0,0,0,0,0,0,0,0,0,0,0,0,0.3064,0.3066,0,0.3189,0.319,0.3192,0.3264,0.3264,0.3265,0.3265,0.3388,0.3391,0.3394,0,0,0,0,0,0,0,0,0,0,0,0,0,0.2882,0.2885,0.3064,0.3066,0.3067,0.3189,0.319,0.3192,0.3264,0.3264,0.3265,0.3265,0.3387,0.3391,0.3394,0,0,0,0,0,0,0,0,0,0,0,0,0,0.2979,0.2886,0.3064,0.3118,0.3124,0.3188,0.319,0.3192,0.3264,0.3264,0.3265,0.3265,0.3386,0.339,0.3395,0.3414,0,0,0.3409,0.3411,0,0,0,0,0,0,0,0,0.2973,0.2986,0.3108,0.3114,0.3121,0.3212,0.3171,0.3266,0.3264,0.3211,0.3265,0.3265,0.3329,0.3338,0.336,0.3419,0.3425,0.3409,0.3412,0.3414,0.3415,0,0,0,0,0,0,0,0.2967,0.2981,0.3113,0.311,0.3118,0.3134,0.3148,0.319,0.3265,0.3215,0.3221,0.3235,0.3332,0.3356,0.3364,0.3426,0.3409,0.3413,0.3416,0.3417,0.3503,0.3502,0,0,0,0,0,0,0.2952,0.2975,0.3109,0.3117,0.3047,0.3137,0.3153,0.3182,0.3265,0.3279,0.3234,0.3238,0.3348,0.3358,0.3368,0.3393,0.3414,0.3418,0.342,0.3503,0.3503,0.3502,0,0,0,0,0,0,0.2948,0.2963,0.3104,0.3047,0.3067,0.3139,0.3172,0.3184,0.3208,0.328,0.3293,0.3245,0.3349,0.3362,0.3401,0.3399,0.342,0.3424,0.3504,0.3503,0.3503,0.3445,0,0,0,0,0,0,0.2942,0.2962,0.2971,0.3047,0.3069,0.3137,0.3172,0.3186,0.3216,0.3222,0.3293,0.3305,0.335,0.3394,0.3406,0.3405,0.3427,0.3504,0.3504,0.3503,0.3447,0.3442,0.3438,0,0,0,0,0,0.2936,0.295,0.2971,0.2987,0.3083,0.3137,0.315,0.3202,0.3216,0.3224,0.327,0.3303,0.3397,0.3397,0.3411,0.3412,0.3505,0.3504,0.3503,0.3449,0.3443,0.3438,0,0,0,0,0,0,0.2872,0.2961,0.2986,0.3026,0.3073,0.3149,0.3163,0.3194,0.3238,0.3241,0.3303,0.3318,0.3351,0.3386,0.3384,0.3432,0.3454,0.3456,0.3409,0.3404,0.3399,0.339,0.3431,0,0,0,0,0,0.2862,0.29,0.2976,0.3003,0.3026,0.309,0.3115,0.3151,0.3202,0.3222,0.3271,0.3318,0.3358,0.3383,0.3424,0.3452,0.3467,0.3459,0.3455,0.3451,0.3451,0.3465,0.3462,0.3499,0.3499,0.3499,0,0,0.2843,0.2897,0.2917,0.2992,0.3033,0.3068,0.3106,0.3143,0.3169,0.3228,0.3268,0.3304,0.336,0.3393,0.3411,0.3423,0.3444,0.3449,0.3445,0.3448,0.3464,0.346,0.3457,0.3499,0.3499,0.3499,0,0,0.2826,0.2872,0.2899,0.2938,0.3,0.3042,0.3047,0.3118,0.3145,0.3186,0.323,0.326,0.3328,0.3366,0.3393,0.3386,0.3416,0.3397,0.3373,0.3386,0.3383,0.338,0.3375,0.3373,0.3397,0.3397,0.3397,0,0.2795,0.2852,0.2908,0.2941,0.2971,0.3026,0.3051,0.3087,0.3158,0.3176,0.3189,0.3274,0.3316,0.3357,0.3354,0.3376,0.3382,0.3389,0.3379,0.3377,0.3376,0.3371,0.3369,0.3394,0.3395,0.3395,0.3395,0,0.2808,0.2846,0.286,0.2928,0.2959,0.2988,0.3046,0.3071,0.3102,0.3142,0.318,0.3232,0.3283,0.3295,0.3327,0.3339,0.3345,0.3368,0.3391,0.3368,0.3365,0.3364,0.339,0.3391,0.3392,0.3393,0,0,0.2758,0.2853,0.2857,0.2886,0.2956,0.2986,0.3015,0.3066,0.3084,0.313,0.3155,0.3209,0.323,0.3261,0.3297,0.3308,0.3295,0.333,0.3332,0.332,0.3308,0.3289,0.3287,0.3316,0.3316,0.3316,0.3303,0,0.275,0.2808,0.2857,0.2896,0.293,0.298,0.3005,0.3049,0.3085,0.3117,0.3157,0.3194,0.322,0.3238,0.3252,0.3294,0.3293,0.3296,0.3337,0.3338,0.332,0.3286,0.3267,0.3252,0.3302,0.3302,0.3302,0,0.275,0.2793,0.2835,0.2898,0.2914,0.2936,0.2984,0.3015,0.3064,0.3089,0.3122,0.3159,0.3189,0.3209,0.325,0.325,0.3269,0.3291,0.3292,0.3297,0.3318,0.3288,0.3249,0.3246,0.3301,0.3301,0.3301,0,0.2706,0.2775,0.2808,0.2832,0.2907,0.292,0.2952,0.3001,0.3027,0.3068,0.3084,0.3127,0.3151,0.3182,0.3228,0.3239,0.3263,0.3287,0.3282,0.3281,0.3285,0.3284,0.3247,0.33,0.33,0.33,0.33,0,0.2692,0.2715,0.2789,0.2809,0.2835,0.2889,0.2913,0.2948,0.2991,0.3017,0.3062,0.3085,0.3146,0.3174,0.3211,0.3237,0.3247,0.3267,0.3276,0.3262,0.3259,0.3275,0.3276,0.3299,0.3299,0.3299,0.3299,0,0.2648,0.2699,0.2738,0.2804,0.2821,0.2837,0.2892,0.2912,0.295,0.2981,0.2992,0.305,0.3086,0.3135,0.3187,0.3211,0.3231,0.3247,0.3215,0.322,0.3211,0.3211,0.3182,0.318,0.3235,0.3234,0.3234,0,0.2636,0.2654,0.2722,0.2742,0.2772,0.2806,0.2831,0.2884,0.2908,0.2963,0.2975,0.3015,0.3049,0.3104,0.3149,0.3187,0.3203,0.319,0.3209,0.3193,0.32,0.3197,0.3198,0.3185,0.3184,0.3184,0.3183,0,0.2607,0.263,0.2667,0.271,0.2739,0.2776,0.2814,0.2828,0.2888,0.2912,0.295,0.2976,0.3027,0.3065,0.3108,0.3138,0.3169,0.3177,0.3177,0.3163,0.3142,0.315,0.32,0.3177,0.3178,0.3178,0.3179,0.3179,0.2578,0.2595,0.2644,0.2682,0.2716,0.2749,0.277,0.2809,0.2842,0.2888,0.2916,0.2951,0.2995,0.3057,0.3085,0.3111,0.3124,0.3125,0.3125,0.3124,0.3118,0.3139,0.3119,0.3119,0.312,0.312,0.312,0,0.255,0.2583,0.2617,0.2668,0.2696,0.2724,0.2766,0.2787,0.2818,0.2857,0.2889,0.2929,0.2964,0.3011,0.3049,0.3061,0.3075,0.3069,0.3068,0.3073,0.3106,0.3101,0.3056,0.3056,0.3056,0.3056,0.3056,0.3056,0.2539,0.2569,0.2597,0.2642,0.2675,0.271,0.2731,0.2761,0.2792,0.2835,0.2864,0.2895,0.2935,0.2976,0.3008,0.3021,0.3031,0.3019,0.3036,0.3066,0.3071,0.3077,0.3072,0.3022,0.3022,0.3001,0.3,0.3]}]]